Back to catalog

FENGYUN 1C DEB

AliveSSO
NORAD 31497·DEBRIS·🇨🇳 China

Launched May 10, 1999 from Taiyuan Satellite Launch Center

Loading…

Next Passes (next 24 hours)

TLE

FreshSource: Space-Track

Epoch: Sep 13, 2026, 04:22 UTC

1 31497U 99025BWL 26256.18201480  .00000243  00000-0  80016-4 0  9992
2 31497  98.3982 238.9386 0166043 238.3308 180.8747 14.39581190 14394

Track FENGYUN 1C DEB in real time with AllMySat

Download on the App Store